Weather in Kumachove

Ukraine / Donetsk Region     47°37′25″N   38°15′51″E
temp.,
°C
wind,
m/s
gust,
m/s
humid.,
%
clouds,
%
prec.,
mm/h
press.,
hPa
HPBL,
m
24 january, sun
sun2423:00+2sse3893100 0.0 1020179
02:00+2sse4888100 0.0 1019166
05:00+2se488399 0.0 1018159
08:00+2se487999 0.0 1018157
11:00+3se4874100 0.0 1019258
14:00+2ese4878100 0.0 1017218
17:00+1ese51187100 0.0 1016253
20:00+1ese61289100 0.0 1016327
25 january, mon
mon2523:000ese51189100 0.0 1016314
02:000ese5987100 0.0 1015243
05:00+1se4885100 0.0 1015233
08:00+1se379355 0.0 1015160
11:00+4se488884 0.0 1015290
14:00+5se488953 0.0 1014240
17:00+3ese5118523 0.0 1013210
20:00+2ese6157961 0.0 1012298
26 january, tue
tue2623:00+2se61479100 0.0 1011351
02:00+2se71473100 0.0 1010317
05:00+4ssw61497100 3.3 1010406
08:00+2s369893 3.3 101299
11:00+5sse3597100 0.0 1014187
14:00+6sse3892100 0.0 1013291
17:00+5se41094100 0.0 1013167
20:00+5se61287100 0.0 1012286
27 january, wed
wed2723:00+4sse51375100 0.0 1011319
02:00+4se41181100 0.0 1010239
05:00+4se51181100 0.0 1008230
08:00+5se51178100 0.0 1008281
11:00+7ese81463100 0.0 1006404
14:00+7ese71366100 0.0 1004390
17:00+5ese71475100 0.0 1004356
20:00+4se71482100 0.0 1004399
28 january, thu
thu2823:00+4ese61185100 0.1 1003272
02:00+3se61388100 0.1 1002296
05:00+2se51087100 0.0 1003268
08:00+3s4894100 0.5 1004248
11:00+3sw3793100 1.0 1005397
14:00+4sw3773100 1.0 1005673
17:00+2sw4779100 0.0 1007215
20:00+1wsw4978100 0.0 1009296